Location: Driftpile
(55.3500°N, 115.7667°W)
Time: 10:42:06
(UTC+00:00)

N. Korean satellite - Pass Details

Date: 28 November 2021
Orbit: 447 x 491 km, 97.3° (Epoch: 23 January)

Event Time Altitude Azimuth Distance (km) Brightness Sun altitude
Rises 12:22:43 0° 23° (NNE) 2,496 10.5 -27.1°
Reaches altitude 10° 12:25:03 10° 37° (NE) 1,608 9.6 -26.8°
Maximum altitude 12:27:55 24° 94° (E) 981 8.8 -26.4°
Drops below altitude 10° 12:30:44 10° 150° (SSE) 1,581 9.5 -26.0°
Sets 12:33:01 0° 165° (SSE) 2,444 10.3 -25.7°
